SR7U-1 Weather Reports


time (UTC)temp
C
wind
direction
speed
KPH
gust
KPH
rain 1hr
cm
rain 24hr
cm
rain mn
cm
humidity
%
barometer
mb
20260508033225 10 0.0 0.0 0.00 0.00 0.00 98 1014.5
20260508031850 10 0.0 0.0 0.00 0.00 0.00 98 1014.4
20260508030534 10 0.0 0.0 0.00 0.00 0.00 98 1014.3
20260508025204 10 0.0 0.0 0.00 0.00 0.00 98 1014.3
20260508023923 10 0.0 0.0 0.00 0.00 0.00 98 1014.3
20260508022543 10 0.0 0.0 0.00 0.00 0.00 98 1014.2
20260508021159 10 0.0 0.0 0.00 0.00 0.00 98 1014.2
20260508015929 10 0.0 0.0 0.00 0.00 0.00 98 1014.2
20260508014633 10 0.0 0.0 0.00 0.00 0.00 98 1014.2
20260508013330 10 0.0 0.0 0.00 0.00 0.00 98 1014.1
20260508011909 11 0.0 0.0 0.00 0.00 0.00 98 1014.1
20260508010445 11 0.0 0.0 0.00 0.00 0.00 98 1014.2
20260508005037 10 0.0 0.0 0.00 0.00 0.00 98 1014.1
20260508003709 10 0.0 0.0 0.00 0.00 0.00 97 1014.1
20260508002457 10 0.0 0.0 0.00 0.00 0.00 97 1014.0
20260508001220 10 0.0 0.0 0.00 0.00 0.00 97 1014.0
20260508000017 10 0.0 0.0 0.00 0.00 0.00 97 1014.2
20260507234524 11 0.0 0.0 0.00 0.00 0.00 97 1014.1
20260507233322 11 0.0 0.0 0.00 0.00 0.00 97 1014.1
20260507231854 10 0.0 0.0 0.00 0.00 0.00 97 1014.1
20260507230450 11 0.0 0.0 0.00 0.00 0.00 97 1014.3
20260507225015 11 0.0 0.0 0.00 0.00 0.00 96 1014.2
20260507223714 11 0.0 0.0 0.00 0.00 0.00 96 1014.3
20260507222357 11 0.0 0.0 0.00 0.00 0.00 96 1014.3
20260507221104 11 0.0 0.0 0.00 0.00 0.00 95 1014.0
20260507215609 11 0.0 0.0 0.00 0.00 0.00 95 1014.2
20260507214407 11 0.0 0.0 0.00 0.00 0.00 94 1014.1
20260507213015 11 0.0 0.0 0.00 0.00 0.00 92 1013.7
20260507211655 11 0.0 0.0 0.00 0.00 0.00 92 1013.5
20260507210424 11 0.0 0.0 0.00 0.00 0.00 92 1013.4
20260507205005 11 0.0 0.0 0.00 0.00 0.00 93 1013.3
20260507203615 11 0.0 0.0 0.00 0.00 0.00 95 1013.6
20260507202337 11 0.0 0.0 0.00 0.00 0.00 95 1013.7
20260507201129 11 0.0 0.0 0.00 0.00 0.00 94 1013.7
20260507195729 11 0.0 0.0 0.00 0.00 0.00 93 1013.7
20260507194337 11 0.0 0.0 0.00 0.00 0.00 92 1013.5
20260507193137 11 0.0 0.0 0.00 0.00 0.00 88 1013.5
20260507191737 11 0.0 0.0 0.00 0.00 0.00 90 1013.5
20260507190404 11 0.0 0.0 0.00 0.00 0.00 88 1013.3
20260507185024 11 0.0 0.0 0.00 0.00 0.00 87 1013.0
20260507183724 11 0.0 0.0 0.00 0.00 0.00 90 1012.9
20260507182354 11 0.0 0.0 0.00 0.00 0.00 90 1012.5
20260507181140 11 0.0 0.0 0.00 0.00 0.00 91 1012.5
20260507175925 11 0.0 0.0 0.00 0.00 0.00 91 1012.3
20260507174611 11 0.0 0.0 0.00 0.00 0.00 92 1012.4
20260507173210 11 0.0 0.0 0.00 0.00 0.00 92 1012.5
20260507171856 11 0.0 0.0 0.00 0.00 0.00 92 1012.9
20260507170609 11 0.0 0.0 0.00 0.00 0.00 88 1012.8
20260507165205 15 0.0 0.0 0.00 0.00 0.00 88 1011.5
20260507163757 15 0.0 0.0 0.00 0.00 0.00 83 1010.9
20260507162419 16 0.0 0.0 0.00 0.00 0.00 79 1010.8
20260507160959 17 0.0 0.0 0.00 0.00 0.00 70 1010.9
20260507155745 17 0.0 0.0 0.00 0.00 0.00 67 1010.9
20260507154337 18 0.0 0.0 0.00 0.00 0.00 66 1010.8
20260507152956 18 0.0 0.0 0.00 0.00 0.00 65 1010.8
20260507151519 18 0.0 0.0 0.00 0.00 0.00 64 1011.0
20260507150034 18 0.0 0.0 0.00 0.00 0.00 65 1010.7
20260507144834 18 0.0 0.0 0.00 0.00 0.00 64 1010.8
20260507143444 18 0.0 0.0 0.00 0.00 0.00 64 1010.8
20260507142004 18 0.0 0.0 0.00 0.00 0.00 63 1010.9
20260507140609 18 0.0 0.0 0.00 0.00 0.00 64 1010.8
20260507135156 18 0.0 0.0 0.00 0.00 0.00 64 1010.8
20260507133833 18 0.0 0.0 0.00 0.00 0.00 66 1010.8
20260507132545 18 0.0 0.0 0.00 0.00 0.00 65 1010.9
20260507131146 18 0.0 0.0 0.00 0.00 0.00 69 1011.0
20260507125734 18 0.0 0.0 0.00 0.00 0.00 68 1010.8
20260507124411 18 0.0 0.0 0.00 0.00 0.00 67 1010.9
20260507123142 18 0.0 0.0 0.00 0.00 0.00 68 1010.8
20260507121835 18 0.0 0.0 0.00 0.00 0.00 67 1010.8
20260507120334 18 0.0 0.0 0.00 0.00 0.00 69 1010.9
20260507114854 18 0.0 0.0 0.00 0.00 0.00 65 1010.7
20260507113535 18 0.0 0.0 0.00 0.00 0.00 65 1010.7
20260507112110 18 0.0 0.0 0.00 0.00 0.00 66 1010.6
20260507110656 18 0.0 0.0 0.00 0.00 0.00 66 1010.6
20260507105248 18 0.0 0.0 0.00 0.00 0.00 66 1010.4
20260507103804 18 0.0 0.0 0.00 0.00 0.00 66 1010.3
20260507102459 18 0.0 0.0 0.00 0.00 0.00 66 1010.2
20260507101205 18 0.0 0.0 0.00 0.00 0.00 65 1010.2
20260507095913 18 0.0 0.0 0.00 0.00 0.00 64 1009.9
20260507094509 18 0.0 0.0 0.00 0.00 0.00 61 1009.8
20260507093127 18 0.0 0.0 0.00 0.00 0.00 62 1009.6
20260507091759 18 0.0 0.0 0.00 0.00 0.00 60 1009.4
20260507090323 18 0.0 0.0 0.00 0.00 0.00 61 1009.3
20260507085124 18 0.0 0.0 0.00 0.00 0.00 60 1009.1
20260507083924 19 0.0 0.0 0.00 0.00 0.00 57 1008.9
20260507082640 19 0.0 0.0 0.00 0.00 0.00 59 1008.8
20260507081149 19 0.0 0.0 0.00 0.00 0.00 58 1008.8
20260507075914 19 0.0 0.0 0.00 0.00 0.00 59 1008.4
20260507074440 18 0.0 0.0 0.00 0.00 0.00 61 1008.5
20260507073045 18 0.0 0.0 0.00 0.00 0.00 61 1008.4
20260507071704 18 0.0 0.0 0.00 0.00 0.00 62 1008.4
20260507070451 18 0.0 0.0 0.00 0.00 0.00 62 1008.2
20260507065209 18 0.0 0.0 0.00 0.00 0.00 59 1008.0
20260507063844 18 0.0 0.0 0.00 0.00 0.00 59 1008.0
20260507062404 17 0.0 0.0 0.00 0.00 0.00 61 1007.9
20260507060935 17 0.0 0.0 0.00 0.00 0.00 60 1007.8
20260507055700 17 0.0 0.0 0.00 0.00 0.00 62 1007.8
20260507054419 17 0.0 0.0 0.00 0.00 0.00 62 1007.7
20260507053134 16 0.0 0.0 0.00 0.00 0.00 63 1007.6
20260507051845 16 0.0 0.0 0.00 0.00 0.00 64 1007.6
20260507050635 15 0.0 0.0 0.00 0.00 0.00 66 1007.5
20260507045334 15 0.0 0.0 0.00 0.00 0.00 67 1007.6
20260507043959 15 0.0 0.0 0.00 0.00 0.00 67 1007.4
20260507042559 16 0.0 0.0 0.00 0.00 0.00 66 1007.3
20260507041229 15 0.0 0.0 0.00 0.00 0.00 66 1007.2
20260507035930 14 0.0 0.0 0.00 0.00 0.00 73 1007.3
20260507034728 13 0.0 0.0 0.00 0.00 0.00 80 1007.2